[[{"header":{"parameterUnit":"m.s-1","parameterCategory":1,"la1":30.2991,"la2":30.254,"lo1":-89.0895,"lo2":-89.0444,"dy":0.0017,"dx":0.0017,"nx":28,"ny":28,"refTime":"2024-06-02T21:00:00:Z","depth":0,"parameterNumber":2,"parameterNumberName":"U-component_of_WINDS"},"data":[0,0,0,0,0,0,0,0,0,0,0,0,0,0,0,0,0,0,0,0,0,0,0,0,0,0,0,0,0,0,0,0,0,0,0,0,0,0,0,0,0,0,0,0,0,0,0,0,0,0,0,0,0,0,0,0,0,0,0.4207,0.4206,0,0.4156,0.4155,0.4155,0.4126,0.4126,0.4125,0.4125,0.4071,0.407,0.4068,0,0,0,0,0,0,0,0,0,0,0,0,0,0.4276,0.4275,0.4207,0.4206,0.4205,0.4156,0.4155,0.4154,0.4126,0.4126,0.4125,0.4125,0.4072,0.407,0.4068,0,0,0,0,0,0,0,0,0,0,0,0,0,0.4237,0.4274,0.4207,0.4185,0.4183,0.4156,0.4155,0.4154,0.4126,0.4126,0.4125,0.4125,0.4072,0.407,0.4068,0.4058,0,0,0.4062,0.4061,0,0,0,0,0,0,0,0,0.424,0.4235,0.4189,0.4187,0.4184,0.4147,0.416,0.4122,0.4126,0.4147,0.4125,0.4125,0.4096,0.4092,0.4083,0.4056,0.4054,0.4062,0.406,0.406,0.4059,0,0,0,0,0,0,0,0.4242,0.4237,0.4186,0.4188,0.4185,0.4177,0.4171,0.4152,0.4123,0.4145,0.4143,0.4138,0.4095,0.4085,0.4081,0.4053,0.4062,0.406,0.4059,0.4058,0.4014,0.4014,0,0,0,0,0,0,0.4249,0.4239,0.4188,0.4185,0.4212,0.4176,0.4169,0.4159,0.4123,0.4118,0.4138,0.4136,0.4089,0.4084,0.4079,0.4065,0.406,0.4058,0.4057,0.4014,0.4014,0.4014,0,0,0,0,0,0,0.425,0.4244,0.419,0.4211,0.4204,0.4175,0.4163,0.4158,0.4148,0.4118,0.4112,0.4133,0.4088,0.4082,0.4064,0.4063,0.4057,0.4055,0.4014,0.4014,0.4014,0.4037,0,0,0,0,0,0,0.4252,0.4245,0.4242,0.4212,0.4203,0.4176,0.4163,0.4157,0.4145,0.4143,0.4112,0.4107,0.4088,0.4067,0.4062,0.406,0.4053,0.4014,0.4014,0.4014,0.4036,0.4038,0.4039,0,0,0,0,0,0.4255,0.425,0.4242,0.4236,0.4198,0.4176,0.4171,0.415,0.4145,0.4141,0.4121,0.4108,0.4064,0.4065,0.4059,0.4057,0.4014,0.4014,0.4014,0.4035,0.4037,0.4039,0,0,0,0,0,0,0.4281,0.4246,0.4236,0.4222,0.4202,0.4171,0.4166,0.4153,0.4134,0.4133,0.4106,0.41,0.4083,0.4068,0.407,0.4045,0.4037,0.4036,0.4056,0.4057,0.4059,0.4063,0.4052,0,0,0,0,0,0.4285,0.4271,0.4241,0.4231,0.4221,0.4195,0.4185,0.417,0.4149,0.414,0.4119,0.4098,0.4079,0.4067,0.4048,0.4034,0.4026,0.4029,0.403,0.4032,0.4031,0.4021,0.4021,0.4014,0.4014,0.4014,0,0,0.4293,0.4272,0.4265,0.4235,0.4218,0.4203,0.4189,0.4173,0.4161,0.4137,0.4119,0.4102,0.4077,0.406,0.4051,0.4047,0.4031,0.4032,0.4033,0.4032,0.4021,0.4022,0.4022,0.4014,0.4014,0.4014,0,0,0.43,0.4283,0.4273,0.4256,0.4231,0.4213,0.4211,0.4182,0.417,0.4151,0.4132,0.4117,0.4086,0.4068,0.4055,0.4054,0.4041,0.4049,0.4057,0.4047,0.4048,0.4048,0.4047,0.4047,0.4048,0.4048,0.4048,0,0.4313,0.429,0.4268,0.4254,0.4241,0.4219,0.4208,0.4192,0.4162,0.4153,0.4148,0.4108,0.4089,0.4068,0.4067,0.4058,0.4053,0.4052,0.405,0.405,0.405,0.4049,0.4048,0.405,0.4049,0.4049,0.4049,0,0.4307,0.4291,0.4286,0.4258,0.4244,0.4231,0.4206,0.4195,0.4181,0.4164,0.4144,0.4121,0.4097,0.409,0.4077,0.4066,0.4064,0.4055,0.4047,0.4052,0.405,0.405,0.4051,0.4051,0.405,0.405,0,0,0.4329,0.4289,0.4287,0.4273,0.4244,0.4231,0.4216,0.4193,0.4183,0.4163,0.4149,0.4123,0.4114,0.4099,0.4083,0.4075,0.4075,0.4067,0.4066,0.4069,0.4061,0.4067,0.4067,0.4066,0.4066,0.4066,0.4063,0,0.4331,0.4305,0.4285,0.4266,0.4251,0.4229,0.4216,0.4196,0.418,0.4163,0.4144,0.4126,0.4116,0.4107,0.4098,0.4077,0.4073,0.4077,0.4052,0.4051,0.4059,0.4067,0.4074,0.4072,0.4062,0.4062,0.4062,0,0.433,0.4311,0.4291,0.4262,0.4255,0.4244,0.4221,0.4206,0.4182,0.417,0.4153,0.4137,0.4119,0.4113,0.4088,0.4091,0.4079,0.4067,0.4067,0.4063,0.4057,0.4063,0.4071,0.4071,0.406,0.4061,0.4061,0,0.4347,0.4316,0.43,0.429,0.4256,0.4248,0.4234,0.421,0.4197,0.4176,0.4167,0.4144,0.4132,0.4114,0.4091,0.4089,0.4068,0.406,0.4057,0.4057,0.4053,0.4054,0.406,0.4047,0.4047,0.4047,0.4047,0,0.4352,0.434,0.4308,0.4298,0.4284,0.426,0.4246,0.4229,0.4208,0.4194,0.4173,0.416,0.4131,0.4114,0.4096,0.4077,0.4072,0.4061,0.4056,0.4063,0.4064,0.4054,0.4054,0.4047,0.4047,0.4047,0.4047,0,0.4368,0.4346,0.4327,0.4297,0.4289,0.428,0.4253,0.4242,0.4224,0.4206,0.42,0.4171,0.415,0.4126,0.4096,0.4084,0.4066,0.4059,0.4075,0.4072,0.407,0.407,0.407,0.4068,0.4057,0.4057,0.4057,0,0.4373,0.4363,0.4332,0.4321,0.4307,0.429,0.4277,0.4252,0.4239,0.4211,0.4203,0.418,0.4161,0.4127,0.4103,0.408,0.4072,0.4073,0.4068,0.4075,0.4071,0.4072,0.4071,0.4075,0.4075,0.4075,0.4075,0,0.4382,0.4371,0.4353,0.4332,0.4317,0.4298,0.4278,0.427,0.4242,0.4228,0.4206,0.4191,0.4161,0.4138,0.4112,0.4095,0.408,0.4077,0.4075,0.4081,0.409,0.4085,0.4078,0.4077,0.4077,0.4077,0.4077,0.4077,0.4392,0.4382,0.4359,0.4339,0.4322,0.4304,0.4292,0.4272,0.4254,0.4228,0.4215,0.4193,0.4168,0.4131,0.4115,0.4097,0.4092,0.4089,0.4088,0.4088,0.409,0.4094,0.4092,0.4092,0.4092,0.4092,0.4092,0,0.4399,0.4383,0.4366,0.4339,0.4324,0.4312,0.4289,0.4276,0.4258,0.4236,0.4217,0.4192,0.4169,0.4143,0.4119,0.4109,0.4102,0.4104,0.4104,0.41,0.4096,0.41,0.411,0.411,0.411,0.411,0.411,0.411,0.4402,0.4385,0.4371,0.4345,0.4328,0.4307,0.4295,0.4278,0.4261,0.4233,0.4215,0.4198,0.4175,0.4148,0.4127,0.4119,0.4111,0.4115,0.4106,0.4102,0.4101,0.4099,0.4103,0.4114,0.4114,0.4112,0.4112,0.4112]},{"header":{"parameterUnit":"m.s-1","parameterCategory":1,"la1":30.2991,"la2":30.254,"lo1":-89.0895,"lo2":-89.0444,"dy":0.0017,"dx":0.0017,"nx":28,"ny":28,"refTime":"2024-06-02T21:00:00:Z","depth":0,"parameterNumber":3,"parameterNumberName":"V-component_of_WINDS"},"data":[0,0,0,0,0,0,0,0,0,0,0,0,0,0,0,0,0,0,0,0,0,0,0,0,0,0,0,0,0,0,0,0,0,0,0,0,0,0,0,0,0,0,0,0,0,0,0,0,0,0,0,0,0,0,0,0,0,0,3.5692,3.5692,0,3.5693,3.5693,3.5693,3.5679,3.5679,3.5679,3.5678,3.5675,3.5676,3.5676,0,0,0,0,0,0,0,0,0,0,0,0,0,3.5676,3.5677,3.5692,3.5692,3.5692,3.5693,3.5693,3.5693,3.5679,3.5679,3.5678,3.5678,3.5675,3.5676,3.5676,0,0,0,0,0,0,0,0,0,0,0,0,0,3.5681,3.5677,3.5692,3.5685,3.5685,3.5693,3.5693,3.5693,3.5679,3.5679,3.5678,3.5678,3.5675,3.5676,3.5676,3.5689,0,0,3.5677,3.5677,0,0,0,0,0,0,0,0,3.5681,3.5681,3.5686,3.5686,3.5685,3.5685,3.5686,3.5691,3.568,3.5681,3.5678,3.5678,3.5679,3.5679,3.568,3.5689,3.5689,3.5677,3.5677,3.5678,3.5678,0,0,0,0,0,0,0,3.568,3.5681,3.5692,3.5686,3.5686,3.5682,3.5682,3.5687,3.5683,3.5681,3.568,3.5681,3.5679,3.568,3.568,3.5689,3.5677,3.5678,3.5678,3.5678,3.571,3.5711,0,0,0,0,0,0,3.5681,3.5681,3.5692,3.5692,3.5682,3.5682,3.5683,3.5686,3.5683,3.5682,3.5681,3.568,3.5679,3.568,3.568,3.5696,3.5678,3.5678,3.5678,3.5709,3.571,3.5711,0,0,0,0,0,0,3.5681,3.5682,3.5692,3.5686,3.5687,3.5683,3.5687,3.5686,3.5688,3.5683,3.5682,3.5683,3.5679,3.5679,3.5688,3.5696,3.5678,3.5679,3.5709,3.571,3.5711,3.5728,0,0,0,0,0,0,3.5681,3.5682,3.5688,3.5687,3.5688,3.57,3.5688,3.5687,3.5689,3.5687,3.5685,3.5684,3.5679,3.5687,3.5688,3.5696,3.5679,3.5708,3.5709,3.571,3.5727,3.573,3.5732,0,0,0,0,0,3.568,3.5691,3.5688,3.5689,3.5694,3.5701,3.5701,3.5696,3.5689,3.5695,3.5692,3.5684,3.5695,3.5688,3.5689,3.5697,3.5707,3.5709,3.571,3.5726,3.5729,3.5732,0,0,0,0,0,0,3.5691,3.5691,3.5687,3.5699,3.57,3.5699,3.5705,3.57,3.5702,3.57,3.5693,3.5692,3.5702,3.57,3.5693,3.5711,3.57,3.5701,3.5711,3.5715,3.5717,3.5717,3.5679,0,0,0,0,0,3.5696,3.5702,3.5701,3.5711,3.5712,3.5709,3.5711,3.5707,3.5708,3.5708,3.5706,3.5706,3.571,3.5712,3.5715,3.5727,3.5726,3.5733,3.5736,3.5738,3.5739,3.5747,3.575,3.5715,3.5715,3.5715,0,0,3.5703,3.5704,3.5708,3.5713,3.5714,3.572,3.5709,3.5715,3.572,3.5708,3.5717,3.5716,3.5715,3.5726,3.573,3.5725,3.5749,3.574,3.5741,3.5741,3.5748,3.5752,3.5755,3.5716,3.5716,3.5716,0,0,3.5722,3.5723,3.5732,3.5734,3.5736,3.5734,3.5736,3.5736,3.5735,3.5744,3.5736,3.574,3.5746,3.5747,3.5748,3.5769,3.5762,3.577,3.5783,3.5791,3.5793,3.5796,3.5804,3.5807,3.5771,3.5771,3.5771,0,3.5731,3.5741,3.5737,3.5745,3.5748,3.574,3.575,3.5751,3.5753,3.5755,3.5749,3.5758,3.5757,3.5768,3.5774,3.5774,3.5777,3.577,3.5793,3.5796,3.5798,3.5806,3.5809,3.5772,3.5772,3.5772,3.5772,0,3.5753,3.576,3.5767,3.5772,3.5776,3.5784,3.5781,3.5785,3.5782,3.578,3.5789,3.5788,3.5792,3.5794,3.579,3.5805,3.5802,3.5795,3.5784,3.5802,3.5809,3.5812,3.5774,3.5774,3.5773,3.5773,0,0,3.5776,3.5781,3.5783,3.5786,3.5789,3.5794,3.5803,3.5808,3.5812,3.5814,3.5821,3.5827,3.5822,3.5823,3.5818,3.5825,3.5843,3.5817,3.5817,3.5822,3.5861,3.5867,3.587,3.5839,3.5839,3.5839,3.5861,0,3.5794,3.5811,3.5808,3.5824,3.5831,3.5824,3.5832,3.5834,3.5833,3.5839,3.5837,3.5843,3.5834,3.5835,3.5841,3.5839,3.585,3.5838,3.5845,3.5845,3.5845,3.5874,3.5879,3.59,3.5864,3.5864,3.5865,0,3.5817,3.5823,3.584,3.5843,3.5846,3.5853,3.5858,3.5864,3.5866,3.5865,3.5868,3.5863,3.5872,3.5861,3.5873,3.5864,3.5867,3.5867,3.5867,3.5868,3.5856,3.5875,3.5906,3.5909,3.5869,3.5869,3.5868,0,3.5834,3.5845,3.5857,3.586,3.5864,3.5869,3.5871,3.5873,3.5877,3.5881,3.5884,3.5888,3.5891,3.5895,3.5891,3.5884,3.5904,3.5892,3.5903,3.5903,3.5907,3.5907,3.5939,3.5908,3.5908,3.5908,3.5908,0,3.5854,3.5865,3.5865,3.5872,3.5884,3.5882,3.5893,3.5894,3.5897,3.5904,3.5898,3.5904,3.5899,3.5905,3.5902,3.5913,3.5914,3.5913,3.5912,3.5914,3.5914,3.5916,3.5914,3.5909,3.5909,3.5909,3.5909,0,3.5874,3.5875,3.5888,3.5892,3.5893,3.5902,3.5905,3.5911,3.5911,3.592,3.5922,3.5921,3.5928,3.5926,3.5932,3.593,3.5944,3.5941,3.5944,3.5943,3.5954,3.5953,3.5989,3.5994,3.5959,3.596,3.596,0,3.5888,3.5896,3.5902,3.5907,3.591,3.5918,3.5923,3.5921,3.5926,3.5931,3.5937,3.5944,3.595,3.5961,3.596,3.5966,3.5963,3.5975,3.5964,3.5966,3.5964,3.5964,3.5965,3.5977,3.5978,3.5978,3.5978,0,3.5911,3.5912,3.5919,3.5928,3.5934,3.594,3.5945,3.595,3.5948,3.5954,3.5962,3.5967,3.5975,3.5982,3.5988,3.5988,3.5983,3.5982,3.5985,3.5987,3.5988,3.5988,3.5951,3.5981,3.5981,3.5981,3.598,3.598,3.5928,3.5936,3.5943,3.5952,3.5956,3.5962,3.5969,3.5971,3.5978,3.5986,3.5984,3.5994,3.5998,3.6005,3.6007,3.6014,3.6009,3.6013,3.6014,3.6015,3.6017,3.5987,3.6014,3.6014,3.6014,3.6014,3.6014,0,3.5952,3.5957,3.5965,3.5975,3.5982,3.5978,3.5985,3.5991,3.6,3.6005,3.6011,3.6021,3.6028,3.6029,3.6036,3.6042,3.604,3.6044,3.6043,3.6044,3.602,3.6017,3.6045,3.6045,3.6045,3.6045,3.6045,3.6045,3.5966,3.598,3.5981,3.5997,3.6001,3.6012,3.6016,3.6021,3.6025,3.6038,3.6045,3.6046,3.6049,3.6057,3.6063,3.6063,3.6066,3.6071,3.607,3.6048,3.6045,3.6042,3.604,3.6072,3.6072,3.6094,3.6094,3.6094]}]]